Wind_Speed
51 52 52 51 50 50 49 47 47 47 47 47 47 47 47 46 45 44 42 41 41 41 40 39 39 40 39 38 38 37 36 34 32 31 30 28 27 27
50 51 50 50 50 50 49 49 49 50 48 48 47 46 46 45 44 42 41 41 41 40 40 39 39 39 38 37 36 35 34 32 31 30 29 27 26 25
48 49 48 47 49 49 50 50 49 48 47 47 47 46 45 43 42 41 41 40 40 40 39 39 38 38 36 36 35 33 32 31 30 29 28 26 25 24
48 48 48 48 49 49 49 49 48 47 46 44 44 43 43 41 41 41 40 39 39 38 39 38 37 36 35 34 33 32 31 30 29 28 27 26 24 24
47 46 46 46 47 46 45 45 44 44 43 42 41 40 40 41 41 40 40 40 39 38 37 36 36 34 33 32 32 31 30 29 28 28 26 25 25 23
47 47 46 45 44 43 43 42 42 42 41 40 40 40 41 41 41 41 40 39 37 37 36 35 34 33 32 32 31 30 29 28 27 27 26 25 24 23
47 47 45 43 42 41 40 41 41 40 39 39 39 40 41 40 39 38 37 35 36 35 35 34 33 32 32 31 30 29 27 27 26 26 25 25 24 22
44 43 43 42 41 40 40 39 39 38 39 39 39 39 39 39 39 36 35 35 35 34 34 33 33 32 31 30 29 28 27 26 26 26 25 24 23 22
41 40 40 40 39 39 39 38 38 39 39 38 37 37 37 37 37 36 35 35 34 34 33 33 32 31 30 29 28 27 27 26 25 25 25 24 23 22
37 37 37 37 38 37 38 38 36 37 36 36 36 36 36 36 36 36 35 35 34 34 33 32 31 30 29 28 27 27 26 26 25 25 24 23 22 22
35 35 35 34 35 36 36 36 36 37 36 35 35 36 36 35 34 34 33 34 33 33 32 31 29 29 28 28 27 26 26 25 25 24 23 22 21 21
34 35 35 35 35 36 36 35 36 36 36 36 35 35 35 34 33 33 33 33 32 31 31 30 29 29 28 27 27 26 26 25 24 23 23 22 22 22
33 34 35 36 36 36 36 36 36 36 36 35 34 34 34 33 33 33 33 32 31 31 30 30 29 28 28 27 27 27 26 25 24 24 23 23 22 22
32 33 34 35 36 37 37 37 36 35 35 33 33 33 33 32 32 33 32 32 31 30 30 29 29 28 28 27 27 27 26 25 25 24 23 23 23 23
32 33 34 34 34 35 34 34 34 33 32 31 32 32 32 32 32 31 31 31 31 30 29 29 28 28 28 27 27 27 26 25 25 25 24 23 23 24
31 32 33 33 33 33 32 32 32 31 31 30 31 31 31 32 31 31 30 30 30 29 29 28 28 28 28 27 27 27 26 26 26 25 25 25 25 25
29 30 31 31 31 31 31 30 30 31 31 31 31 31 31 31 31 30 29 29 29 29 29 29 28 28 28 27 27 27 27 27 26 26 25 25 25 26
28 28 28 28 28 29 29 29 29 30 31 32 31 31 31 31 30 30 29 29 29 29 29 28 28 28 28 28 27 27 26 26 26 26 27 27 27 27
27 28 27 27 27 27 28 29 29 30 30 31 31 31 31 30 30 30 29 29 29 29 29 29 28 28 28 28 28 27 27 27 27 27 28 28 29 29
26 26 26 26 27 28 29 29 29 29 30 30 30 30 30 30 29 29 29 30 30 29 29 29 29 29 28 28 28 28 28 28 28 28 29 29 30 30
25 26 27 27 28 29 30 30 29 29 29 29 29 30 30 30 30 30 30 30 30 30 30 30 30 29 29 29 29 29 29 29 29 29 30 30 31 31
25 26 27 28 28 29 30 30 29 29 29 29 29 29 30 30 30 30 29 29 30 30 30 30 29 29 29 29 29 30 30 30 30 31 31 31 32 32
26 26 27 27 28 28 29 30 30 30 30 30 30 30 30 30 30 30 30 30 30 30 30 30 30 30 30 29 29 30 31 31 31 32 32 32 33 33
Wind_Direction
270 271 271 269 269 268 268 268 268 269 270 270 270 270 270 270 271 273 275 277 279 281 281 282 283 284 286 286 286 286 286 286 284 283 283 282 281 279
271 271 271 269 270 269 267 267 267 269 269 269 268 268 268 269 271 271 274 275 278 278 280 281 282 283 284 285 285 285 285 284 283 282 281 281 279 277
272 271 271 271 271 270 267 266 267 267 267 268 267 267 267 268 268 268 272 274 276 276 278 279 281 282 283 284 284 284 284 282 281 281 280 278 276 273
273 272 271 270 270 270 268 267 266 266 267 267 267 267 267 267 268 268 271 273 274 275 276 278 280 281 282 283 283 282 281 281 280 280 277 276 272 271
271 271 271 270 270 270 268 266 265 265 265 267 267 266 267 267 268 269 270 271 272 274 276 278 279 279 281 282 280 280 279 280 279 276 273 272 270 268
270 270 270 270 269 268 264 263 265 265 266 265 264 266 266 268 268 269 269 271 271 273 275 276 277 278 280 279 278 278 278 277 276 274 270 268 267 264
270 269 268 266 266 264 263 263 263 263 264 262 263 265 265 267 267 268 268 270 271 273 274 275 275 277 278 277 277 276 275 275 274 271 269 267 266 261
271 269 266 265 264 264 264 263 262 262 262 263 264 265 266 266 265 267 267 269 271 272 273 274 274 276 276 275 274 274 273 273 272 270 268 266 264 260
272 269 265 263 262 262 261 260 261 261 262 262 263 263 263 264 264 266 267 269 269 270 271 272 272 273 274 273 272 271 270 270 269 266 264 262 259 256
272 271 267 264 261 260 260 261 261 260 261 262 261 262 262 263 264 265 265 267 267 269 270 270 270 271 270 270 270 269 267 267 266 263 261 259 256 254
271 268 265 262 261 260 260 259 259 260 262 262 262 262 261 262 264 264 265 266 267 269 268 268 268 269 268 268 267 265 264 263 262 260 259 255 252 249
269 265 263 260 260 260 258 259 259 260 261 261 260 260 260 261 262 263 264 265 266 266 266 266 266 267 266 266 265 263 261 260 258 257 256 253 249 247
267 264 262 260 259 258 259 259 259 259 259 258 258 259 260 261 262 264 265 264 265 266 266 266 265 265 263 263 262 260 258 257 255 254 253 250 248 246
267 262 260 260 260 258 257 256 257 257 256 257 258 259 260 262 263 264 264 264 265 265 265 264 262 262 261 260 259 258 255 254 254 253 251 248 248 247
266 263 260 260 259 257 255 255 254 255 257 258 258 259 260 262 263 264 263 264 263 263 263 263 262 261 259 258 257 255 253 252 253 252 251 249 248 247
266 264 261 259 260 259 255 255 254 255 256 257 258 258 260 262 262 263 264 263 262 262 262 262 260 259 257 256 255 254 253 251 250 250 250 248 247 248
269 265 261 260 261 259 255 255 255 255 256 257 258 259 260 262 262 262 262 261 260 260 260 260 258 257 255 254 254 254 253 251 248 248 248 248 249 249
267 263 262 261 261 258 255 258 258 256 255 256 257 258 259 260 260 260 260 259 259 259 259 258 257 256 255 254 254 254 253 251 250 249 249 250 250 250
267 265 265 264 261 258 258 259 259 257 256 256 257 257 257 258 259 259 259 258 258 258 258 257 256 255 254 254 254 254 254 253 252 251 251 251 251 251
269 265 265 263 261 260 260 259 258 258 257 257 257 257 257 258 259 258 258 258 257 256 257 257 256 256 255 254 253 253 253 253 253 253 253 253 253 252
270 266 265 265 264 262 260 259 258 257 257 257 257 257 257 257 257 257 257 257 256 256 256 257 256 255 254 253 253 254 254 255 255 255 256 255 254 254
273 269 267 266 266 264 260 259 258 257 257 257 258 257 257 257 257 257 257 256 256 255 255 256 255 254 254 254 254 254 254 255 256 257 257 257 256 256
275 273 270 268 267 266 262 260 258 258 258 258 258 258 258 257 256 256 256 255 254 254 254 255 255 254 254 254 255 255 255 256 257 258 258 258 258 258
Height
5697 5696 5695 5694 5694 5693 5693 5692 5691 5691 5692 5692 5692 5692 5692 5692 5692 5693 5692 5692 5691 5690 5689 5687 5686 5684 5683 5681 5679 5677 5676 5674 5673 5672 5671 5671 5670 5670
5683 5682 5681 5681 5680 5679 5679 5678 5678 5677 5677 5678 5679 5679 5679 5680 5680 5681 5681 5681 5680 5679 5678 5677 5676 5674 5673 5672 5670 5669 5667 5666 5665 5664 5664 5663 5663 5663
5670 5669 5668 5667 5666 5665 5664 5664 5663 5663 5664 5665 5665 5666 5667 5668 5668 5669 5670 5670 5669 5669 5668 5667 5666 5665 5663 5662 5661 5660 5659 5658 5657 5657 5656 5656 5656 5656
5658 5656 5655 5654 5653 5651 5650 5650 5650 5650 5651 5651 5652 5654 5655 5656 5657 5658 5658 5659 5658 5658 5657 5657 5656 5655 5654 5653 5652 5652 5651 5650 5650 5649 5649 5649 5648 5649
5645 5644 5642 5641 5640 5638 5637 5637 5637 5638 5639 5640 5642 5643 5644 5645 5646 5647 5648 5648 5648 5648 5647 5647 5646 5646 5645 5645 5644 5643 5643 5643 5642 5642 5641 5641 5642 5642
5632 5631 5630 5628 5627 5626 5625 5625 5626 5627 5628 5629 5630 5632 5633 5634 5635 5636 5637 5637 5637 5638 5637 5637 5637 5637 5637 5636 5636 5636 5635 5635 5635 5634 5634 5634 5635 5636
5618 5617 5616 5616 5615 5614 5614 5615 5615 5616 5617 5618 5619 5621 5622 5623 5625 5625 5626 5627 5627 5628 5628 5628 5628 5628 5628 5628 5628 5627 5627 5627 5627 5627 5627 5628 5628 5629
5604 5604 5603 5603 5603 5603 5603 5604 5605 5606 5607 5608 5609 5611 5612 5613 5614 5615 5616 5617 5618 5619 5618 5619 5619 5619 5619 5620 5619 5620 5620 5620 5620 5620 5620 5621 5622 5623
5591 5591 5591 5591 5592 5592 5593 5594 5595 5596 5597 5598 5599 5601 5602 5604 5605 5606 5607 5608 5608 5609 5609 5610 5610 5610 5611 5611 5611 5612 5612 5612 5613 5613 5613 5614 5615 5616
5579 5579 5579 5580 5581 5582 5584 5585 5585 5586 5588 5589 5591 5592 5593 5594 5595 5597 5597 5598 5599 5600 5600 5601 5601 5602 5602 5603 5603 5604 5604 5605 5605 5606 5607 5608 5609 5610
5568 5568 5568 5570 5571 5573 5574 5575 5576 5578 5578 5580 5581 5582 5583 5585 5586 5587 5588 5589 5590 5591 5591 5592 5592 5593 5593 5594 5595 5596 5597 5597 5598 5599 5600 5601 5602 5604
5558 5558 5559 5560 5561 5563 5564 5566 5567 5569 5570 5571 5572 5573 5574 5575 5576 5578 5579 5580 5580 5582 5582 5583 5584 5585 5585 5586 5587 5588 5589 5590 5591 5592 5593 5594 5596 5598
5547 5548 5549 5550 5551 5553 5555 5556 5558 5559 5560 5561 5562 5564 5565 5567 5568 5569 5570 5571 5572 5572 5574 5574 5575 5576 5577 5578 5579 5580 5582 5583 5584 5585 5586 5588 5589 5591
5538 5538 5539 5540 5541 5543 5544 5546 5548 5549 5551 5552 5553 5555 5556 5558 5559 5560 5560 5561 5562 5564 5565 5566 5567 5568 5569 5570 5571 5572 5574 5575 5577 5578 5579 5581 5582 5584
5528 5529 5530 5531 5531 5533 5535 5536 5538 5540 5541 5543 5544 5546 5547 5549 5550 5551 5552 5552 5553 5555 5556 5557 5558 5559 5560 5562 5563 5564 5566 5568 5569 5571 5572 5574 5576 5578
5519 5519 5520 5521 5522 5523 5525 5527 5528 5530 5532 5533 5535 5537 5538 5540 5541 5542 5543 5544 5545 5546 5547 5548 5550 5551 5552 5554 5555 5557 5558 5560 5562 5563 5565 5567 5568 5570
5510 5510 5510 5511 5512 5514 5516 5518 5519 5521 5523 5524 5526 5528 5529 5531 5532 5533 5534 5535 5536 5537 5539 5540 5541 5543 5544 5546 5547 5549 5550 5552 5554 5555 5557 5559 5561 5563
5501 5501 5502 5503 5504 5505 5507 5508 5510 5512 5513 5515 5517 5518 5520 5521 5523 5524 5525 5526 5527 5529 5530 5532 5533 5535 5536 5538 5539 5541 5542 5544 5546 5548 5549 5551 5553 5555
5493 5493 5494 5494 5495 5496 5498 5499 5501 5503 5504 5506 5507 5509 5511 5512 5513 5515 5516 5517 5519 5520 5522 5523 5525 5526 5528 5529 5531 5533 5534 5536 5537 5539 5541 5543 5545 5546
5485 5485 5486 5486 5487 5488 5489 5491 5492 5494 5495 5497 5498 5500 5501 5503 5504 5506 5507 5508 5510 5511 5513 5514 5516 5518 5519 5521 5522 5524 5525 5527 5529 5530 5532 5534 5535 5537
5478 5478 5478 5478 5479 5479 5480 5481 5483 5485 5486 5487 5489 5490 5492 5493 5495 5496 5498 5499 5501 5502 5504 5505 5507 5509 5510 5512 5514 5515 5516 5518 5520 5521 5523 5524 5526 5527
5470 5470 5470 5470 5470 5470 5471 5472 5474 5475 5477 5478 5479 5481 5482 5484 5486 5487 5489 5490 5492 5493 5495 5496 5498 5499 5501 5502 5504 5505 5507 5509 5510 5511 5513 5514 5515 5517
5463 5462 5462 5462 5462 5462 5462 5463 5464 5466 5467 5469 5470 5472 5473 5474 5476 5477 5479 5481 5482 5484 5485 5487 5488 5490 5491 5493 5494 5496 5497 5499 5500 5501 5503 5504 5505 5506